Time,TemperatureF,DewpointF,PressureIn,WindDirection,WindDirectionDegrees,WindSpeedMPH,WindSpeedGustMPH,Humidity,HourlyPrecipIn,Conditions,Clouds,dailyrainin,SoftwareType,DateUTC
2013-06-19 00:02:00,74.5,69.6,29.96,East,81,0.0,5.0,85,0.00,,,0.01,meteohub,2013-06-19 05:02:00,
2013-06-19 00:07:00,74.5,70.0,29.96,East,81,2.0,5.0,86,0.00,,,0.00,meteohub,2013-06-19 05:07:00,
2013-06-19 00:12:00,74.3,69.8,29.96,East,81,0.0,2.0,86,0.00,,,0.00,meteohub,2013-06-19 05:12:00,
2013-06-19 00:17:00,74.3,69.8,29.96,SE,125,0.0,5.0,86,0.00,,,0.00,meteohub,2013-06-19 05:17:00,
2013-06-19 00:22:00,74.3,69.8,29.96,SE,125,0.0,5.0,86,0.00,,,0.00,meteohub,2013-06-19 05:22:00,
2013-06-19 00:27:00,74.3,69.8,29.96,SE,133,3.0,5.0,86,0.00,,,0.00,meteohub,2013-06-19 05:27:00,
2013-06-19 00:32:00,74.3,69.8,29.96,ESE,120,0.0,6.0,86,0.00,,,0.00,meteohub,2013-06-19 05:32:00,
2013-06-19 00:37:00,74.3,69.8,29.96,ESE,120,0.0,6.0,86,0.00,,,0.00,meteohub,2013-06-19 05:37:00,
2013-06-19 00:42:00,74.3,69.4,29.96,ESE,120,0.0,6.0,85,0.00,,,0.00,meteohub,2013-06-19 05:42:00,
2013-06-19 00:47:00,74.1,69.6,29.96,ESE,120,0.0,2.0,86,0.00,,,0.00,meteohub,2013-06-19 05:47:00,
2013-06-19 00:52:00,73.8,69.3,29.96,ESE,120,0.0,2.0,86,0.00,,,0.00,meteohub,2013-06-19 05:52:00,
2013-06-19 00:57:00,73.6,69.4,29.96,ESE,120,0.0,1.0,87,0.00,,,0.00,meteohub,2013-06-19 05:57:00,
2013-06-19 01:02:00,73.4,69.3,29.96,ESE,120,0.0,1.0,87,0.00,,,0.00,meteohub,2013-06-19 06:02:00,
2013-06-19 01:07:00,73.4,69.6,29.96,ESE,120,0.0,0.0,88,0.00,,,0.00,meteohub,2013-06-19 06:07:00,
2013-06-19 01:12:00,73.6,69.4,29.96,ESE,120,1.0,0.0,87,0.00,,,0.00,meteohub,2013-06-19 06:12:00,
2013-06-19 01:17:00,73.8,69.6,29.96,ESE,120,0.0,3.0,87,0.00,,,0.00,meteohub,2013-06-19 06:17:00,
2013-06-19 01:22:00,73.9,69.4,29.96,ESE,120,2.0,3.0,86,0.00,,,0.00,meteohub,2013-06-19 06:22:00,
2013-06-19 01:27:00,74.1,69.6,29.96,ESE,123,1.0,3.0,86,0.00,,,0.00,meteohub,2013-06-19 06:27:00,
2013-06-19 01:32:00,74.5,69.6,29.96,ESE,123,1.0,4.0,85,0.00,,,0.00,meteohub,2013-06-19 06:32:00,
2013-06-19 01:37:00,74.7,69.8,29.96,ESE,123,1.0,4.0,85,0.00,,,0.00,meteohub,2013-06-19 06:37:00,
2013-06-19 01:42:00,74.7,69.8,29.96,ESE,123,0.0,2.0,85,0.00,,,0.00,meteohub,2013-06-19 06:42:00,
2013-06-19 01:47:00,74.8,70.0,29.96,ESE,123,1.0,4.0,85,0.00,,,0.00,meteohub,2013-06-19 06:47:00,
2013-06-19 01:52:00,74.8,70.0,29.96,ESE,123,0.0,4.0,85,0.00,,,0.00,meteohub,2013-06-19 06:52:00,
2013-06-19 01:57:00,74.8,70.0,29.96,ESE,123,1.0,3.0,85,0.00,,,0.00,meteohub,2013-06-19 06:57:00,
2013-06-19 02:02:00,74.8,70.0,29.95,ESE,123,1.0,3.0,85,0.00,,,0.00,meteohub,2013-06-19 07:02:00,
2013-06-19 02:07:00,74.8,70.0,29.95,ESE,123,1.0,3.0,85,0.00,,,0.00,meteohub,2013-06-19 07:07:00,
2013-06-19 02:12:00,74.8,70.0,29.96,ESE,123,0.0,3.0,85,0.00,,,0.00,meteohub,2013-06-19 07:12:00,
2013-06-19 02:17:00,74.7,70.2,29.96,ESE,123,0.0,3.0,86,0.00,,,0.00,meteohub,2013-06-19 07:17:00,
2013-06-19 02:22:00,74.7,70.2,29.96,ESE,123,1.0,3.0,86,0.00,,,0.00,meteohub,2013-06-19 07:22:00,
2013-06-19 02:27:00,74.7,70.2,29.96,ESE,123,0.0,2.0,86,0.00,,,0.00,meteohub,2013-06-19 07:27:00,
2013-06-19 02:32:00,74.7,70.2,29.96,ESE,123,2.0,2.0,86,0.00,,,0.00,meteohub,2013-06-19 07:32:00,
2013-06-19 02:37:00,74.7,69.8,29.96,ESE,123,1.0,3.0,85,0.00,,,0.00,meteohub,2013-06-19 07:37:00,
2013-06-19 02:42:00,74.7,69.8,29.95,ESE,123,0.0,3.0,85,0.00,,,0.00,meteohub,2013-06-19 07:42:00,
2013-06-19 02:47:00,74.7,69.8,29.95,ESE,123,0.0,3.0,85,0.00,,,0.00,meteohub,2013-06-19 07:47:00,
2013-06-19 02:52:00,74.7,69.8,29.95,ESE,123,0.0,2.0,85,0.00,,,0.00,meteohub,2013-06-19 07:52:00,
2013-06-19 02:57:00,74.7,69.8,29.95,ESE,123,2.0,2.0,85,0.00,,,0.00,meteohub,2013-06-19 07:57:00,
2013-06-19 03:02:00,74.7,69.4,29.94,ESE,123,1.0,3.0,84,0.00,,,0.00,meteohub,2013-06-19 08:02:00,
2013-06-19 03:07:00,74.8,69.6,29.94,ESE,123,0.0,3.0,84,0.00,,,0.00,meteohub,2013-06-19 08:07:00,
2013-06-19 03:12:00,74.8,69.6,29.94,ESE,123,0.0,3.0,84,0.00,,,0.00,meteohub,2013-06-19 08:12:00,
2013-06-19 03:17:00,74.8,69.6,29.94,SE,126,1.0,3.0,84,0.00,,,0.00,meteohub,2013-06-19 08:17:00,
2013-06-19 03:22:00,74.8,69.6,29.94,SSE,167,1.0,3.0,84,0.00,,,0.00,meteohub,2013-06-19 08:22:00,
2013-06-19 03:27:00,74.7,69.4,29.94,South,169,0.0,3.0,84,0.00,,,0.00,meteohub,2013-06-19 08:27:00,
2013-06-19 03:32:00,74.7,69.8,29.94,South,178,1.0,3.0,85,0.00,,,0.00,meteohub,2013-06-19 08:32:00,
2013-06-19 03:37:00,74.7,69.4,29.94,South,178,0.0,3.0,84,0.00,,,0.00,meteohub,2013-06-19 08:37:00,
2013-06-19 03:42:00,74.7,69.4,29.94,South,177,0.0,3.0,84,0.00,,,0.00,meteohub,2013-06-19 08:42:00,
2013-06-19 03:47:00,74.5,69.6,29.94,South,177,0.0,2.0,85,0.00,,,0.00,meteohub,2013-06-19 08:47:00,
2013-06-19 03:52:00,74.3,69.4,29.94,South,177,0.0,2.0,85,0.00,,,0.00,meteohub,2013-06-19 08:52:00,
2013-06-19 03:57:00,74.1,69.6,29.94,South,177,0.0,2.0,86,0.00,,,0.00,meteohub,2013-06-19 08:57:00,
2013-06-19 04:02:00,73.9,69.4,29.94,South,177,0.0,1.0,86,0.00,,,0.00,meteohub,2013-06-19 09:02:00,
2013-06-19 04:07:00,73.8,69.6,29.94,South,177,0.0,0.0,87,0.00,,,0.00,meteohub,2013-06-19 09:07:00,
2013-06-19 04:12:00,73.6,69.4,29.94,South,177,0.0,0.0,87,0.00,,,0.00,meteohub,2013-06-19 09:12:00,
2013-06-19 04:17:00,73.6,69.4,29.94,South,177,0.0,0.0,87,0.00,,,0.00,meteohub,2013-06-19 09:17:00,
2013-06-19 04:22:00,73.6,69.4,29.94,South,177,0.0,0.0,87,0.00,,,0.00,meteohub,2013-06-19 09:22:00,
2013-06-19 04:27:00,73.6,69.4,29.94,South,177,0.0,0.0,87,0.00,,,0.00,meteohub,2013-06-19 09:27:00,
2013-06-19 04:32:00,73.6,69.4,29.94,South,177,0.0,0.0,87,0.00,,,0.00,meteohub,2013-06-19 09:32:00,
2013-06-19 04:37:00,73.6,69.4,29.94,South,177,0.0,0.0,87,0.00,,,0.00,meteohub,2013-06-19 09:37:00,
2013-06-19 04:42:00,73.8,69.6,29.94,South,177,0.0,0.0,87,0.00,,,0.00,meteohub,2013-06-19 09:42:00,
2013-06-19 04:47:00,73.8,69.6,29.94,South,177,0.0,0.0,87,0.00,,,0.00,meteohub,2013-06-19 09:47:00,
2013-06-19 04:52:00,73.8,69.6,29.94,South,177,0.0,0.0,87,0.00,,,0.00,meteohub,2013-06-19 09:52:00,
2013-06-19 04:57:00,73.8,69.6,29.95,South,177,1.0,2.0,87,0.00,,,0.00,meteohub,2013-06-19 09:57:00,
2013-06-19 05:02:00,73.8,70.0,29.95,South,177,0.0,2.0,88,0.00,,,0.00,meteohub,2013-06-19 10:02:00,
2013-06-19 05:07:00,73.8,70.0,29.95,South,177,0.0,2.0,88,0.00,,,0.00,meteohub,2013-06-19 10:07:00,
2013-06-19 05:12:00,73.8,70.3,29.94,South,177,0.0,2.0,89,0.00,,,0.00,meteohub,2013-06-19 10:12:00,
2013-06-19 05:17:00,73.6,70.2,29.94,South,177,0.0,2.0,89,0.00,,,0.00,meteohub,2013-06-19 10:17:00,
2013-06-19 05:22:00,73.6,70.2,29.95,South,177,0.0,0.0,89,0.00,,,0.00,meteohub,2013-06-19 10:22:00,
2013-06-19 05:27:00,73.6,70.2,29.95,NW,305,1.0,2.0,89,0.00,,,0.00,meteohub,2013-06-19 10:27:00,
2013-06-19 05:32:00,73.6,70.5,29.95,NW,305,2.0,3.0,90,0.00,,,0.00,meteohub,2013-06-19 10:32:00,
2013-06-19 05:37:00,73.6,70.5,29.95,NW,305,1.0,3.0,90,0.00,,,0.00,meteohub,2013-06-19 10:37:00,
2013-06-19 05:42:00,73.6,70.5,29.95,NW,305,2.0,3.0,90,0.00,,,0.00,meteohub,2013-06-19 10:42:00,
2013-06-19 05:47:00,73.4,70.3,29.95,NW,305,1.0,3.0,90,0.00,,,0.00,meteohub,2013-06-19 10:47:00,
2013-06-19 05:52:00,73.2,70.2,29.96,NW,305,0.0,3.0,90,0.00,,,0.00,meteohub,2013-06-19 10:52:00,
2013-06-19 05:57:00,73.4,70.3,29.96,NW,305,2.0,3.0,90,0.00,,,0.00,meteohub,2013-06-19 10:57:00,
2013-06-19 06:02:00,73.4,70.3,29.96,NW,320,3.0,3.0,90,0.00,,,0.00,meteohub,2013-06-19 11:02:00,
2013-06-19 06:07:00,73.6,70.7,29.96,NW,320,3.0,4.0,91,0.00,,,0.00,meteohub,2013-06-19 11:07:00,
2013-06-19 06:12:00,73.8,70.9,29.96,NW,320,2.0,4.0,91,0.00,,,0.00,meteohub,2013-06-19 11:12:00,
2013-06-19 06:17:00,73.8,70.7,29.97,NW,320,1.0,4.0,90,0.00,,,0.00,meteohub,2013-06-19 11:17:00,
2013-06-19 06:22:00,73.9,70.9,29.97,North,11,3.0,4.0,90,0.00,,,0.00,meteohub,2013-06-19 11:22:00,
2013-06-19 06:27:00,73.9,71.1,29.97,North,11,0.0,4.0,91,0.00,,,0.00,meteohub,2013-06-19 11:27:00,
2013-06-19 06:32:00,73.9,71.1,29.98,North,11,2.0,4.0,91,0.00,,,0.00,meteohub,2013-06-19 11:32:00,
2013-06-19 06:37:00,73.9,71.1,29.98,NNE,17,1.0,4.0,91,0.00,,,0.00,meteohub,2013-06-19 11:37:00,
2013-06-19 06:42:00,74.1,71.2,29.98,NNE,17,3.0,3.0,91,0.00,,,0.00,meteohub,2013-06-19 11:42:00,
2013-06-19 06:47:00,74.3,71.4,29.99,NNE,25,2.0,4.0,91,0.00,,,0.00,meteohub,2013-06-19 11:47:00,
2013-06-19 06:52:00,74.5,71.6,29.99,North,355,5.0,6.0,91,0.00,,,0.00,meteohub,2013-06-19 11:52:00,
2013-06-19 06:57:00,74.3,71.4,29.99,NNE,14,2.0,6.0,91,0.00,,,0.00,meteohub,2013-06-19 11:57:00,
2013-06-19 07:02:00,74.3,71.4,29.99,NNE,16,4.0,6.0,91,0.00,,,0.00,meteohub,2013-06-19 12:02:00,
2013-06-19 07:07:00,74.1,71.2,30.00,NNE,22,4.0,6.0,91,0.01,,,0.01,meteohub,2013-06-19 12:07:00,
2013-06-19 07:22:00,73.8,71.2,29.99,North,11,3.0,6.0,92,0.01,,,0.01,meteohub,2013-06-19 12:22:00,
2013-06-19 07:32:00,73.8,71.6,30.00,NNE,23,3.0,6.0,93,0.02,,,0.02,meteohub,2013-06-19 12:32:00,
2013-06-19 07:37:00,73.8,71.6,30.00,NNE,15,1.0,6.0,93,0.02,,,0.02,meteohub,2013-06-19 12:37:00,
2013-06-19 07:42:00,73.8,71.6,29.99,NNE,16,0.0,6.0,93,0.02,,,0.02,meteohub,2013-06-19 12:42:00,
2013-06-19 07:47:00,73.8,71.6,29.99,NNE,16,2.0,4.0,93,0.02,,,0.02,meteohub,2013-06-19 12:47:00,
2013-06-19 07:52:00,73.8,71.6,29.99,NNE,15,0.0,4.0,93,0.02,,,0.02,meteohub,2013-06-19 12:52:00,
2013-06-19 07:57:00,73.8,71.6,29.99,NNE,15,0.0,4.0,93,0.03,,,0.03,meteohub,2013-06-19 12:57:00,
2013-06-19 08:07:00,74.1,72.0,30.00,NNE,16,0.0,3.0,93,0.02,,,0.03,meteohub,2013-06-19 13:07:00,
2013-06-19 08:12:00,74.1,72.3,30.00,North,9,4.0,4.0,94,0.02,,,0.03,meteohub,2013-06-19 13:12:00,
2013-06-19 08:17:00,74.1,72.0,30.00,North,5,4.0,7.0,93,0.07,,,0.08,meteohub,2013-06-19 13:17:00,
2013-06-19 08:22:00,73.9,71.8,30.00,SW,217,0.0,8.0,93,0.06,,,0.08,meteohub,2013-06-19 13:22:00,
2013-06-19 08:27:00,73.8,72.0,30.00,SW,217,1.0,8.0,94,0.07,,,0.09,meteohub,2013-06-19 13:27:00,
2013-06-19 08:32:00,73.9,72.1,30.01,SW,234,1.0,7.0,94,0.26,,,0.28,meteohub,2013-06-19 13:32:00,
2013-06-19 08:37:00,73.8,72.0,30.02,South,184,2.0,6.0,94,0.29,,,0.31,meteohub,2013-06-19 13:37:00,
2013-06-19 08:42:00,73.8,72.0,30.02,WSW,242,3.0,5.0,94,0.40,,,0.42,meteohub,2013-06-19 13:42:00,
2013-06-19 08:47:00,73.2,71.1,30.02,NNE,25,2.0,7.0,93,0.51,,,0.53,meteohub,2013-06-19 13:47:00,
2013-06-19 08:52:00,73.0,71.2,30.02,NNE,22,0.0,7.0,94,0.58,,,0.60,meteohub,2013-06-19 13:52:00,
2013-06-19 08:57:00,72.9,71.1,30.02,NNE,32,5.0,7.0,94,0.60,,,0.63,meteohub,2013-06-19 13:57:00,
2013-06-19 09:02:00,72.9,71.1,30.02,NNW,346,1.0,7.0,94,0.62,,,0.65,meteohub,2013-06-19 14:02:00,
2013-06-19 09:07:00,72.9,71.1,30.02,NNW,340,1.0,7.0,94,0.63,,,0.66,meteohub,2013-06-19 14:07:00,
2013-06-19 09:12:00,72.7,70.9,30.02,NNW,346,0.0,7.0,94,0.63,,,0.68,meteohub,2013-06-19 14:12:00,
2013-06-19 09:17:00,72.7,70.9,30.02,NNW,346,1.0,4.0,94,0.60,,,0.68,meteohub,2013-06-19 14:17:00,
2013-06-19 09:22:00,72.7,70.9,30.02,NNW,346,0.0,2.0,94,0.60,,,0.69,meteohub,2013-06-19 14:22:00,
2013-06-19 09:27:00,72.7,70.9,30.03,NNW,346,0.0,2.0,94,0.56,,,0.69,meteohub,2013-06-19 14:27:00,
2013-06-19 09:32:00,72.9,71.1,30.02,NNW,346,0.0,2.0,94,0.40,,,0.69,meteohub,2013-06-19 14:32:00,
2013-06-19 09:37:00,72.9,71.1,30.02,NNW,346,1.0,1.0,94,0.33,,,0.69,meteohub,2013-06-19 14:37:00,
2013-06-19 09:42:00,72.7,70.9,30.03,NNW,346,0.0,1.0,94,0.26,,,0.69,meteohub,2013-06-19 14:42:00,
2013-06-19 09:47:00,72.7,70.9,30.03,NNW,346,0.0,2.0,94,0.13,,,0.69,meteohub,2013-06-19 14:47:00,
2013-06-19 09:52:00,72.9,71.1,30.03,NNW,346,0.0,2.0,94,0.09,,,0.70,meteohub,2013-06-19 14:52:00,
2013-06-19 09:57:00,73.0,71.6,30.04,NNW,346,0.0,2.0,95,0.06,,,0.70,meteohub,2013-06-19 14:57:00,
2013-06-19 10:02:00,72.9,71.1,30.04,NNW,344,1.0,3.0,94,0.05,,,0.70,meteohub,2013-06-19 15:02:00,
2013-06-19 10:07:00,72.9,71.1,30.04,NNW,343,0.0,3.0,94,0.04,,,0.71,meteohub,2013-06-19 15:07:00,
2013-06-19 10:12:00,72.9,71.1,30.04,NNW,343,0.0,3.0,94,0.03,,,0.71,meteohub,2013-06-19 15:12:00,
2013-06-19 10:17:00,72.7,70.9,30.04,NNW,344,1.0,3.0,94,0.02,,,0.71,meteohub,2013-06-19 15:17:00,
2013-06-19 10:22:00,72.9,71.1,30.04,NNW,344,2.0,2.0,94,0.03,,,0.72,meteohub,2013-06-19 15:22:00,
2013-06-19 10:27:00,72.9,71.1,30.04,NNW,345,2.0,3.0,94,0.03,,,0.72,meteohub,2013-06-19 15:27:00,
2013-06-19 10:32:00,72.7,70.9,30.05,North,0,0.0,4.0,94,0.03,,,0.72,meteohub,2013-06-19 15:32:00,
2013-06-19 10:37:00,72.9,71.1,30.05,North,355,1.0,4.0,94,0.03,,,0.72,meteohub,2013-06-19 15:37:00,
2013-06-19 10:42:00,72.9,71.1,30.05,North,11,2.0,4.0,94,0.03,,,0.72,meteohub,2013-06-19 15:42:00,
2013-06-19 10:47:00,72.7,70.9,30.06,NNE,30,0.0,6.0,94,0.04,,,0.73,meteohub,2013-06-19 15:47:00,
2013-06-19 10:52:00,72.7,70.9,30.06,West,278,1.0,6.0,94,0.03,,,0.73,meteohub,2013-06-19 15:52:00,
2013-06-19 10:57:00,72.7,70.9,30.06,NNE,13,0.0,6.0,94,0.04,,,0.74,meteohub,2013-06-19 15:57:00,
2013-06-19 11:02:00,72.5,70.7,30.06,NNW,348,3.0,4.0,94,0.05,,,0.75,meteohub,2013-06-19 16:02:00,
2013-06-19 11:07:00,72.5,70.7,30.06,NNE,30,4.0,4.0,94,0.04,,,0.75,meteohub,2013-06-19 16:07:00,
2013-06-19 11:12:00,72.3,70.5,30.06,NE,34,0.0,4.0,94,0.05,,,0.76,meteohub,2013-06-19 16:12:00,
2013-06-19 11:17:00,72.3,70.5,30.05,North,5,2.0,4.0,94,0.06,,,0.77,meteohub,2013-06-19 16:17:00,
2013-06-19 11:22:00,72.3,70.5,30.05,NNE,15,2.0,4.0,94,0.05,,,0.77,meteohub,2013-06-19 16:22:00,
2013-06-19 11:27:00,72.3,70.5,30.05,NNE,15,0.0,4.0,94,0.06,,,0.78,meteohub,2013-06-19 16:27:00,
2013-06-19 11:32:00,72.1,70.3,30.05,NNE,15,0.0,4.0,94,0.07,,,0.79,meteohub,2013-06-19 16:32:00,
2013-06-19 11:37:00,72.3,70.5,30.05,NNE,15,1.0,4.0,94,0.08,,,0.80,meteohub,2013-06-19 16:37:00,
2013-06-19 11:42:00,72.5,70.7,30.05,NNE,15,0.0,3.0,94,0.07,,,0.80,meteohub,2013-06-19 16:42:00,
2013-06-19 11:47:00,72.3,70.5,30.05,NNE,15,0.0,3.0,94,0.08,,,0.81,meteohub,2013-06-19 16:47:00,
2013-06-19 11:52:00,72.7,70.9,30.06,NNE,15,0.0,3.0,94,0.07,,,0.81,meteohub,2013-06-19 16:52:00,
2013-06-19 11:57:00,72.7,70.9,30.05,NNE,15,2.0,2.0,94,0.07,,,0.82,meteohub,2013-06-19 16:57:00,
2013-06-19 12:02:00,72.7,70.9,30.05,ESE,107,0.0,2.0,94,0.07,,,0.82,meteohub,2013-06-19 17:02:00,
2013-06-19 12:07:00,73.0,71.6,30.05,ESE,107,0.0,3.0,95,0.06,,,0.82,meteohub,2013-06-19 17:07:00,
2013-06-19 12:12:00,73.0,71.2,30.05,ESE,107,2.0,3.0,94,0.06,,,0.82,meteohub,2013-06-19 17:12:00,
2013-06-19 12:17:00,73.4,71.6,30.04,South,178,1.0,4.0,94,0.05,,,0.82,meteohub,2013-06-19 17:17:00,
2013-06-19 12:22:00,73.6,71.8,30.04,South,178,0.0,4.0,94,0.04,,,0.82,meteohub,2013-06-19 17:22:00,
2013-06-19 12:27:00,73.9,72.1,30.04,South,178,0.0,3.0,94,0.04,,,0.82,meteohub,2013-06-19 17:27:00,
2013-06-19 12:32:00,74.1,72.3,30.04,South,178,0.0,2.0,94,0.03,,,0.82,meteohub,2013-06-19 17:32:00,
2013-06-19 12:37:00,74.1,72.3,30.04,South,178,2.0,2.0,94,0.02,,,0.82,meteohub,2013-06-19 17:37:00,
2013-06-19 12:42:00,74.1,72.3,30.04,South,177,0.0,3.0,94,0.02,,,0.82,meteohub,2013-06-19 17:42:00,
2013-06-19 12:47:00,74.5,72.7,30.04,South,177,0.0,3.0,94,0.01,,,0.82,meteohub,2013-06-19 17:47:00,
2013-06-19 12:52:00,74.3,72.1,30.04,South,177,0.0,3.0,93,0.01,,,0.82,meteohub,2013-06-19 17:52:00,
2013-06-19 12:57:00,74.5,72.3,30.04,South,177,0.0,2.0,93,0.00,,,0.82,meteohub,2013-06-19 17:57:00,
2013-06-19 13:02:00,74.5,72.0,30.04,South,177,0.0,2.0,92,0.00,,,0.82,meteohub,2013-06-19 18:02:00,
2013-06-19 13:07:00,74.5,72.0,30.03,NNW,328,3.0,3.0,92,0.00,,,0.82,meteohub,2013-06-19 18:07:00,
2013-06-19 13:12:00,74.8,72.3,30.03,NNE,12,2.0,3.0,92,0.00,,,0.82,meteohub,2013-06-19 18:12:00,
2013-06-19 13:17:00,75.4,72.9,30.02,NNE,15,2.0,3.0,92,0.00,,,0.82,meteohub,2013-06-19 18:17:00,
2013-06-19 13:22:00,75.7,72.9,30.02,North,351,2.0,5.0,91,0.00,,,0.82,meteohub,2013-06-19 18:22:00,
2013-06-19 13:27:00,76.5,73.6,30.02,NNW,334,2.0,5.0,91,0.00,,,0.82,meteohub,2013-06-19 18:27:00,
2013-06-19 13:32:00,76.8,73.6,30.02,NNW,335,2.0,5.0,90,0.00,,,0.82,meteohub,2013-06-19 18:32:00,
2013-06-19 13:37:00,77.4,73.9,30.02,NNE,31,4.0,5.0,89,0.00,,,0.82,meteohub,2013-06-19 18:37:00,
2013-06-19 13:42:00,77.5,74.1,30.02,NNE,31,1.0,5.0,89,0.00,,,0.82,meteohub,2013-06-19 18:42:00,
2013-06-19 13:47:00,77.9,74.1,30.01,NNE,22,1.0,5.0,88,0.00,,,0.82,meteohub,2013-06-19 18:47:00,
2013-06-19 13:52:00,78.4,74.8,30.01,NNE,22,1.0,5.0,89,0.00,,,0.82,meteohub,2013-06-19 18:52:00,
2013-06-19 13:57:00,78.6,74.8,30.01,NNE,22,0.0,2.0,88,0.00,,,0.82,meteohub,2013-06-19 18:57:00,
2013-06-19 14:02:00,79.2,75.0,30.01,NNE,22,0.0,2.0,87,0.00,,,0.82,meteohub,2013-06-19 19:02:00,
2013-06-19 14:07:00,79.9,75.0,30.01,NNE,22,2.0,3.0,85,0.00,,,0.82,meteohub,2013-06-19 19:07:00,
2013-06-19 14:12:00,79.5,74.3,30.01,NNE,22,4.0,5.0,84,0.00,,,0.82,meteohub,2013-06-19 19:12:00,
2013-06-19 14:17:00,79.3,74.1,30.01,NNE,16,2.0,6.0,84,0.00,,,0.82,meteohub,2013-06-19 19:17:00,
2013-06-19 14:22:00,79.0,73.8,30.01,NNW,347,2.0,6.0,84,0.00,,,0.82,meteohub,2013-06-19 19:22:00,
2013-06-19 14:27:00,79.3,73.8,30.00,NE,34,3.0,7.0,83,0.00,,,0.82,meteohub,2013-06-19 19:27:00,
2013-06-19 14:32:00,79.3,73.8,30.00,NNW,335,0.0,7.0,83,0.00,,,0.82,meteohub,2013-06-19 19:32:00,
2013-06-19 14:37:00,79.2,73.9,30.00,North,0,1.0,7.0,84,0.00,,,0.82,meteohub,2013-06-19 19:37:00,
2013-06-19 14:42:00,79.5,74.7,30.00,North,0,0.0,7.0,85,0.00,,,0.82,meteohub,2013-06-19 19:42:00,
2013-06-19 14:47:00,80.1,74.5,30.00,NE,34,5.0,6.0,83,0.00,,,0.82,meteohub,2013-06-19 19:47:00,
2013-06-19 14:52:00,79.9,73.9,30.00,North,355,2.0,6.0,82,0.00,,,0.82,meteohub,2013-06-19 19:52:00,
2013-06-19 14:57:00,79.9,73.9,30.00,NNE,21,1.0,6.0,82,0.00,,,0.82,meteohub,2013-06-19 19:57:00,
2013-06-19 15:02:00,79.5,73.6,30.00,NNE,15,2.0,6.0,82,0.00,,,0.82,meteohub,2013-06-19 20:02:00,
2013-06-19 15:07:00,79.5,73.9,29.99,NNW,348,0.0,5.0,83,0.00,,,0.82,meteohub,2013-06-19 20:07:00,
2013-06-19 15:12:00,79.9,74.3,29.99,NE,44,1.0,5.0,83,0.00,,,0.82,meteohub,2013-06-19 20:12:00,
2013-06-19 15:17:00,79.9,73.9,29.99,NE,41,0.0,5.0,82,0.00,,,0.82,meteohub,2013-06-19 20:17:00,
2013-06-19 15:22:00,80.4,74.8,29.99,NNE,19,0.0,5.0,83,0.00,,,0.82,meteohub,2013-06-19 20:22:00,
2013-06-19 15:27:00,81.5,75.0,29.99,WNW,303,1.0,3.0,81,0.00,,,0.82,meteohub,2013-06-19 20:27:00,
2013-06-19 15:32:00,82.4,76.3,29.99,WNW,303,0.0,2.0,82,0.00,,,0.82,meteohub,2013-06-19 20:32:00,
2013-06-19 15:37:00,83.7,78.6,29.99,WNW,303,0.0,2.0,85,0.00,,,0.82,meteohub,2013-06-19 20:37:00,
2013-06-19 15:42:00,83.5,75.0,29.99,WNW,303,1.0,3.0,76,0.00,,,0.82,meteohub,2013-06-19 20:42:00,
2013-06-19 15:47:00,83.1,75.6,29.99,North,355,2.0,3.0,78,0.00,,,0.82,meteohub,2013-06-19 20:47:00,
2013-06-19 15:52:00,82.9,75.4,29.99,North,355,0.0,3.0,78,0.00,,,0.82,meteohub,2013-06-19 20:52:00,
2013-06-19 15:57:00,83.8,76.6,29.99,North,355,0.0,3.0,79,0.00,,,0.82,meteohub,2013-06-19 20:57:00,
2013-06-19 16:02:00,84.6,77.0,29.99,North,355,0.0,3.0,78,0.00,,,0.82,meteohub,2013-06-19 21:02:00,
2013-06-19 16:07:00,84.7,75.9,29.99,NNE,17,0.0,3.0,75,0.00,,,0.82,meteohub,2013-06-19 21:07:00,
2013-06-19 16:12:00,84.7,76.3,29.99,NNE,17,1.0,4.0,76,0.00,,,0.82,meteohub,2013-06-19 21:12:00,
2013-06-19 16:17:00,84.0,75.6,29.99,NNE,17,3.0,4.0,76,0.00,,,0.82,meteohub,2013-06-19 21:17:00,
2013-06-19 16:22:00,83.3,75.7,29.99,North,0,1.0,4.0,78,0.00,,,0.82,meteohub,2013-06-19 21:22:00,
2013-06-19 16:27:00,82.8,75.6,29.99,NNE,17,3.0,4.0,79,0.00,,,0.82,meteohub,2013-06-19 21:27:00,
2013-06-19 16:32:00,82.6,75.7,29.99,NNE,14,1.0,4.0,80,0.00,,,0.82,meteohub,2013-06-19 21:32:00,
2013-06-19 16:37:00,82.6,75.7,29.99,North,9,2.0,4.0,80,0.00,,,0.82,meteohub,2013-06-19 21:37:00,
2013-06-19 16:42:00,82.2,75.4,29.99,North,5,0.0,4.0,80,0.00,,,0.82,meteohub,2013-06-19 21:42:00,
2013-06-19 16:47:00,82.6,76.1,29.99,North,5,0.0,4.0,81,0.00,,,0.82,meteohub,2013-06-19 21:47:00,
2013-06-19 16:52:00,82.6,75.7,29.99,North,5,0.0,4.0,80,0.00,,,0.82,meteohub,2013-06-19 21:52:00,
2013-06-19 16:57:00,82.8,75.6,29.99,North,5,2.0,3.0,79,0.00,,,0.82,meteohub,2013-06-19 21:57:00,
2013-06-19 17:02:00,82.6,75.4,29.99,North,5,2.0,3.0,79,0.00,,,0.82,meteohub,2013-06-19 22:02:00,
2013-06-19 17:07:00,82.4,75.6,29.99,North,5,0.0,3.0,80,0.00,,,0.82,meteohub,2013-06-19 22:07:00,
2013-06-19 17:12:00,82.6,76.1,29.99,North,5,0.0,3.0,81,0.00,,,0.82,meteohub,2013-06-19 22:12:00,
2013-06-19 17:17:00,82.8,76.3,29.99,North,5,1.0,3.0,81,0.00,,,0.82,meteohub,2013-06-19 22:17:00,
2013-06-19 17:22:00,82.9,76.5,29.99,North,5,0.0,2.0,81,0.00,,,0.82,meteohub,2013-06-19 22:22:00,
2013-06-19 17:27:00,82.9,76.5,29.98,North,5,0.0,1.0,81,0.00,,,0.82,meteohub,2013-06-19 22:27:00,
2013-06-19 17:32:00,82.6,75.7,29.98,North,5,1.0,2.0,80,0.00,,,0.82,meteohub,2013-06-19 22:32:00,
2013-06-19 17:37:00,82.6,76.1,29.98,North,5,0.0,3.0,81,0.00,,,0.82,meteohub,2013-06-19 22:37:00,
2013-06-19 17:42:00,82.2,75.7,29.98,North,5,0.0,3.0,81,0.00,,,0.82,meteohub,2013-06-19 22:42:00,
2013-06-19 17:47:00,82.2,75.7,29.98,North,5,1.0,2.0,81,0.00,,,0.82,meteohub,2013-06-19 22:47:00,
2013-06-19 17:52:00,82.2,75.7,29.98,North,5,0.0,2.0,81,0.00,,,0.82,meteohub,2013-06-19 22:52:00,
2013-06-19 17:57:00,82.4,75.6,29.98,North,5,0.0,1.0,80,0.00,,,0.82,meteohub,2013-06-19 22:57:00,
2013-06-19 18:02:00,82.4,75.9,29.98,North,5,0.0,1.0,81,0.00,,,0.82,meteohub,2013-06-19 23:02:00,
2013-06-19 18:07:00,82.2,75.7,29.98,North,5,0.0,1.0,81,0.00,,,0.82,meteohub,2013-06-19 23:07:00,
2013-06-19 18:12:00,81.9,75.0,29.98,North,5,0.0,1.0,80,0.00,,,0.82,meteohub,2013-06-19 23:12:00,
2013-06-19 18:17:00,82.0,75.6,29.98,North,5,0.0,0.0,81,0.00,,,0.82,meteohub,2013-06-19 23:17:00,
2013-06-19 18:22:00,82.2,75.7,29.98,North,5,0.0,0.0,81,0.00,,,0.82,meteohub,2013-06-19 23:22:00,
2013-06-19 18:27:00,82.0,75.6,29.98,North,5,0.0,1.0,81,0.00,,,0.82,meteohub,2013-06-19 23:27:00,
2013-06-19 18:32:00,82.0,75.6,29.98,North,5,0.0,1.0,81,0.00,,,0.82,meteohub,2013-06-19 23:32:00,
2013-06-19 18:37:00,82.0,75.6,29.98,North,5,0.0,1.0,81,0.00,,,0.82,meteohub,2013-06-19 23:37:00,
2013-06-19 18:42:00,82.2,75.4,29.98,North,5,0.0,0.0,80,0.00,,,0.82,meteohub,2013-06-19 23:42:00,
2013-06-19 18:47:00,82.4,75.6,29.98,North,5,0.0,0.0,80,0.00,,,0.82,meteohub,2013-06-19 23:47:00,
2013-06-19 18:52:00,82.4,75.6,29.97,North,5,0.0,1.0,80,0.00,,,0.82,meteohub,2013-06-19 23:52:00,
2013-06-19 18:57:00,82.4,75.9,29.98,North,5,0.0,1.0,81,0.00,,,0.82,meteohub,2013-06-19 23:57:00,
2013-06-19 19:02:00,82.0,75.6,29.98,North,5,0.0,1.0,81,0.00,,,0.82,meteohub,2013-06-20 00:02:00,
2013-06-19 19:07:00,81.9,75.4,29.98,North,5,0.0,0.0,81,0.00,,,0.82,meteohub,2013-06-20 00:07:00,
2013-06-19 19:12:00,81.9,75.4,29.98,North,5,0.0,0.0,81,0.00,,,0.82,meteohub,2013-06-20 00:12:00,
2013-06-19 19:17:00,81.7,75.6,29.98,North,5,0.0,0.0,82,0.00,,,0.82,meteohub,2013-06-20 00:17:00,
2013-06-19 19:22:00,81.5,75.4,29.98,North,5,0.0,0.0,82,0.00,,,0.82,meteohub,2013-06-20 00:22:00,
2013-06-19 19:27:00,81.1,75.2,29.98,North,5,0.0,0.0,82,0.00,,,0.82,meteohub,2013-06-20 00:27:00,
2013-06-19 19:32:00,81.0,75.4,29.98,North,5,0.0,0.0,83,0.00,,,0.82,meteohub,2013-06-20 00:32:00,
2013-06-19 19:37:00,80.8,75.2,29.98,North,5,0.0,0.0,83,0.00,,,0.82,meteohub,2013-06-20 00:37:00,
2013-06-19 19:42:00,80.6,75.4,29.98,North,5,0.0,1.0,84,0.00,,,0.82,meteohub,2013-06-20 00:42:00,
2013-06-19 19:47:00,80.4,75.2,29.98,North,5,0.0,1.0,84,0.00,,,0.82,meteohub,2013-06-20 00:47:00,
2013-06-19 19:52:00,80.2,75.0,29.98,North,5,0.0,1.0,84,0.00,,,0.82,meteohub,2013-06-20 00:52:00,
2013-06-19 19:57:00,80.1,74.8,29.98,North,5,0.0,0.0,84,0.00,,,0.82,meteohub,2013-06-20 00:57:00,
2013-06-19 20:02:00,80.1,75.2,29.98,North,5,0.0,0.0,85,0.00,,,0.82,meteohub,2013-06-20 01:02:00,
2013-06-19 20:07:00,79.9,75.0,29.98,North,5,0.0,0.0,85,0.00,,,0.82,meteohub,2013-06-20 01:07:00,
2013-06-19 20:12:00,79.5,74.7,29.98,North,5,0.0,0.0,85,0.00,,,0.82,meteohub,2013-06-20 01:12:00,
2013-06-19 20:17:00,79.3,74.5,29.98,North,5,0.0,0.0,85,0.00,,,0.82,meteohub,2013-06-20 01:17:00,
2013-06-19 20:22:00,79.3,74.5,29.99,North,5,0.0,0.0,85,0.00,,,0.82,meteohub,2013-06-20 01:22:00,
2013-06-19 20:27:00,79.2,74.7,29.99,North,5,0.0,0.0,86,0.00,,,0.82,meteohub,2013-06-20 01:27:00,
2013-06-19 20:32:00,78.8,74.3,29.99,North,5,0.0,0.0,86,0.00,,,0.82,meteohub,2013-06-20 01:32:00,
2013-06-19 20:37:00,78.6,74.5,29.99,North,5,0.0,0.0,87,0.00,,,0.82,meteohub,2013-06-20 01:37:00,
2013-06-19 20:42:00,78.4,74.3,29.99,North,5,0.0,0.0,87,0.00,,,0.82,meteohub,2013-06-20 01:42:00,
2013-06-19 20:47:00,78.4,74.3,29.99,North,5,0.0,1.0,87,0.00,,,0.82,meteohub,2013-06-20 01:47:00,
2013-06-19 20:52:00,78.3,74.1,29.99,North,5,0.0,1.0,87,0.00,,,0.82,meteohub,2013-06-20 01:52:00,
2013-06-19 20:57:00,78.3,74.5,29.99,North,5,0.0,0.0,88,0.00,,,0.82,meteohub,2013-06-20 01:57:00,
2013-06-19 21:02:00,78.3,74.5,29.99,North,5,0.0,0.0,88,0.00,,,0.82,meteohub,2013-06-20 02:02:00,
2013-06-19 21:07:00,78.3,74.5,29.99,North,5,0.0,1.0,88,0.00,,,0.82,meteohub,2013-06-20 02:07:00,
2013-06-19 21:12:00,78.1,74.3,30.00,North,5,0.0,1.0,88,0.00,,,0.82,meteohub,2013-06-20 02:12:00,
2013-06-19 21:17:00,78.1,74.5,30.00,North,5,0.0,1.0,89,0.00,,,0.82,meteohub,2013-06-20 02:17:00,
2013-06-19 21:22:00,77.9,74.5,30.00,North,5,0.0,1.0,89,0.00,,,0.82,meteohub,2013-06-20 02:22:00,
2013-06-19 21:27:00,77.7,74.5,30.00,North,5,0.0,1.0,90,0.00,,,0.82,meteohub,2013-06-20 02:27:00,
2013-06-19 21:32:00,77.5,74.3,29.99,North,5,0.0,1.0,90,0.00,,,0.82,meteohub,2013-06-20 02:32:00,
2013-06-19 21:37:00,77.4,74.1,30.00,North,5,0.0,1.0,90,0.00,,,0.82,meteohub,2013-06-20 02:37:00,
2013-06-19 21:42:00,77.4,74.5,29.99,North,5,0.0,0.0,91,0.00,,,0.82,meteohub,2013-06-20 02:42:00,
2013-06-19 21:47:00,77.4,74.5,30.00,North,5,1.0,0.0,91,0.00,,,0.82,meteohub,2013-06-20 02:47:00,
2013-06-19 21:52:00,77.2,74.3,30.00,North,5,0.0,1.0,91,0.00,,,0.82,meteohub,2013-06-20 02:52:00,
2013-06-19 21:57:00,77.0,74.1,30.01,North,5,0.0,1.0,91,0.00,,,0.82,meteohub,2013-06-20 02:57:00,
2013-06-19 22:02:00,76.8,73.9,30.01,North,5,0.0,1.0,91,0.00,,,0.82,meteohub,2013-06-20 03:02:00,
2013-06-19 22:07:00,76.8,73.9,30.01,North,5,1.0,2.0,91,0.00,,,0.82,meteohub,2013-06-20 03:07:00,
2013-06-19 22:12:00,76.6,74.1,30.01,North,5,0.0,2.0,92,0.00,,,0.82,meteohub,2013-06-20 03:12:00,
2013-06-19 22:17:00,76.6,74.1,30.01,North,5,0.0,2.0,92,0.00,,,0.82,meteohub,2013-06-20 03:17:00,
2013-06-19 22:22:00,76.5,73.9,30.01,North,5,0.0,2.0,92,0.00,,,0.82,meteohub,2013-06-20 03:22:00,
2013-06-19 22:27:00,76.5,73.9,30.01,North,5,0.0,1.0,92,0.00,,,0.82,meteohub,2013-06-20 03:27:00,
2013-06-19 22:32:00,76.3,73.8,30.02,North,5,0.0,0.0,92,0.00,,,0.82,meteohub,2013-06-20 03:32:00,
2013-06-19 22:37:00,76.3,73.8,30.01,North,5,0.0,0.0,92,0.00,,,0.82,meteohub,2013-06-20 03:37:00,
2013-06-19 22:42:00,76.1,73.6,30.02,North,5,0.0,0.0,92,0.00,,,0.82,meteohub,2013-06-20 03:42:00,
2013-06-19 22:47:00,75.9,73.4,30.01,North,5,0.0,0.0,92,0.00,,,0.82,meteohub,2013-06-20 03:47:00,
2013-06-19 22:52:00,75.9,73.8,30.02,North,5,0.0,0.0,93,0.00,,,0.82,meteohub,2013-06-20 03:52:00,
2013-06-19 22:57:00,75.9,73.8,30.02,North,5,0.0,0.0,93,0.00,,,0.82,meteohub,2013-06-20 03:57:00,
2013-06-19 23:02:00,75.9,73.8,30.02,North,5,0.0,0.0,93,0.00,,,0.82,meteohub,2013-06-20 04:02:00,
2013-06-19 23:07:00,75.9,73.8,30.02,North,5,0.0,0.0,93,0.00,,,0.82,meteohub,2013-06-20 04:07:00,
2013-06-19 23:12:00,75.9,73.8,30.02,North,5,1.0,0.0,93,0.00,,,0.82,meteohub,2013-06-20 04:12:00,
2013-06-19 23:17:00,75.9,73.8,30.02,North,5,0.0,2.0,93,0.00,,,0.82,meteohub,2013-06-20 04:17:00,
2013-06-19 23:22:00,76.1,73.9,30.02,North,5,0.0,2.0,93,0.00,,,0.82,meteohub,2013-06-20 04:22:00,
2013-06-19 23:27:00,76.1,73.6,30.02,North,5,0.0,1.0,92,0.00,,,0.82,meteohub,2013-06-20 04:27:00,
2013-06-19 23:32:00,76.1,73.6,30.02,North,5,0.0,1.0,92,0.00,,,0.82,meteohub,2013-06-20 04:32:00,
2013-06-19 23:37:00,75.9,73.4,30.03,North,5,0.0,2.0,92,0.00,,,0.82,meteohub,2013-06-20 04:37:00,
2013-06-19 23:42:00,75.9,73.4,30.03,North,5,1.0,2.0,92,0.00,,,0.82,meteohub,2013-06-20 04:42:00,
2013-06-19 23:47:00,75.9,73.8,30.03,North,5,0.0,2.0,93,0.00,,,0.82,meteohub,2013-06-20 04:47:00,
2013-06-19 23:52:00,75.7,73.6,30.03,North,5,0.0,2.0,93,0.00,,,0.82,meteohub,2013-06-20 04:52:00,
2013-06-19 23:57:00,75.6,73.4,30.03,North,5,0.0,2.0,93,0.00,,,0.82,meteohub,2013-06-20 04:57:00,